Location: Bonningues
(50.7927°N, 2.0150°E)
Time: 05:16:53
(UTC+00:00)

SPOT 5 - Pass Details

Date: 08 August 2020
Orbit: 624 x 814 km, 98.3° (Epoch: 19 September)

Event Time Altitude Azimuth Distance (km) Brightness Sun altitude
Exits shadow 20:35:51 14° 124° (SE) 1,762 4.2 -10.2°
Maximum altitude 20:39:04 33° 65° (ENE) 1,062 3.6 -10.5°
Drops below altitude 10° 20:42:59 10° 2° (N) 2,028 5.8 -11.0°
Sets 20:45:22 0° 353° (N) 2,957 6.9 -11.3°
